User: anonymous   Login
Location: Unspecified
(0.0000°N, 0.0000°E)
Time: 08:20:25
(UTC+00:00)
Language:

OPS 7613 P/L 1 - Orbit

View from above orbital plane
View from above orbital plane
View from above satellite
View from above satellite

Ground track
Ground track

The orbit data is extracted from the following two-line orbital elements,

1  4256U 69082B   18347.79851448  .00000031  00000-0  58825-4 0  9997
2  4256  70.0107  90.4834 0017076  47.1927 313.0612 13.98314167507026
Epoch (UTC): 13 December 2018 19:09:51
Eccentricity: 0.0017076
inclination: 70.0107°
perigee height: 887 km
apogee height: 912 km
right ascension of ascending node: 90.4834°
argument of perigee: 47.1927°
revolutions per day: 13.98314167
mean anomaly at epoch: 313.0612°
orbit number at epoch: 50702

The dashed part of the orbit path shows where the satellite is in the earth's shadow,  

DLR